Location: Lone Wolf Observatory
(41.0360°N, 89.2260°W)
Time: 15:45:53
(UTC-05:00)

Amateur Radio Satellites - All Passes

Search period start: 31 October 2014 15:15
Search period end: 01 November 2014 15:15
Location: Lone Wolf Observatory, 41.0360°N, 89.2260°W

Satellite Date Start Highest point End Downlink Frequencies (MHz)
Time Altitude Azimuth
UOSAT-12 31 Oct 15:19:54 15:21:28 11° 326° (NW) 15:23:03 437.025 FM, 437.400 FM
JAS-1B 31 Oct 15:27:57 15:30:46 14° 270° (W) 15:33:35 435.800 - 435.900 CW/SSB
KITSAT 1 31 Oct 15:38:17 15:39:46 11° 354° (N) 15:41:14 435.175 FM
AO-27 31 Oct 15:39:05 15:42:38 18° 268° (W) 15:46:13 436.795 MHz FM
Saudisat 1A 31 Oct 15:50:37 15:54:16 26° 247° (WSW) 15:57:55 436.775 MHz
Gurwin Techsat 1B 31 Oct 15:54:01 15:58:23 26° 266° (W) 16:02:47 435.225 FM
JAS-2 31 Oct 15:55:51 15:59:47 17° 54° (NE) 16:03:58 435.800 - 435.900 CW/SSB, 435.910 FM
TMSAT-1 31 Oct 16:00:00 16:04:37 30° 264° (W) 16:09:17 436.925 FM
ISS 31 Oct 16:07:28 16:10:39 40° 29° (NNE) 16:13:50 145.800 FM
Uosat F 31 Oct 16:34:49 16:39:51 90° 335° (NNW) 16:44:55 435.120 FM
AO-7 31 Oct 16:50:04 16:58:10 59° 257° (WSW) 17:06:22 29.400 - 29.500 MHz
OPAL 31 Oct 17:06:40 17:08:45 13° 92° (E) 17:10:50 ?
KITSAT 1 31 Oct 17:34:46 17:39:29 16° 26° (NNE) 17:44:11 435.175 FM
JAS-2 31 Oct 17:37:20 17:43:37 87° 75° (ENE) 17:50:48 435.800 - 435.900 CW/SSB, 435.910 FM
Hamsat 31 Oct 17:41:15 17:45:20 57° 74° (ENE) 17:49:27 145.90 MHz
ISS 31 Oct 17:44:26 17:47:13 25° 226° (SW) 17:49:59 145.800 FM
SO-50 31 Oct 18:05:58 18:06:10 10° 32° (NNE) 18:06:23 436.795 FM
SO-67 31 Oct 18:25:33 18:27:58 18° 69° (ENE) 18:30:24 435.3500 MHz FM
OPAL 31 Oct 18:43:11 18:48:08 72° 288° (WNW) 18:53:03 ?
STRAND 1 31 Oct 19:01:31 19:05:47 26° 95° (E) 19:10:00 ?
HO-68 31 Oct 19:08:12 19:12:04 16° 52° (NE) 19:15:57 435.675 MHz FM
Hamsat 31 Oct 19:20:14 19:21:38 11° 270° (W) 19:23:03 145.90 MHz
JAS-2 31 Oct 19:26:16 19:29:45 15° 276° (W) 19:33:28 435.800 - 435.900 CW/SSB, 435.910 FM
KITSAT 1 31 Oct 19:29:16 19:37:06 50° 51° (NE) 19:44:53 435.175 FM
SO-50 31 Oct 19:43:09 19:47:53 49° 53° (NE) 19:52:37 436.795 FM
Oscar 10/S400 31 Oct 19:52:05 20:23:40 55° 195° (SSW) 05:13:55 145.825 - 145.975 CW/USB, Beacon 145.810 USB
SO-67 31 Oct 19:57:58 20:00:47 23° 265° (W) 20:03:37 435.3500 MHz FM
UOSAT-12 31 Oct 20:26:23 20:29:33 17° 40° (NE) 20:32:40 437.025 FM, 437.400 FM
Oscar 11 31 Oct 20:27:33 20:28:01 10° 61° (ENE) 20:28:28 145.825 FM, Beacon 2401.500 USB
AO-40 31 Oct 20:38:59 21:20:07 11° 105° (ESE) 21:52:13 Beacon 2401.320
STRAND 1 31 Oct 20:40:18 20:45:02 38° 291° (WNW) 20:49:45 ?
RS-15 31 Oct 20:48:45 20:59:18 55° 112° (ESE) 21:09:45 29.354 - 29.394 USB, Beacon 29.352 USB
HO-68 31 Oct 20:51:28 20:58:37 77° 71° (ENE) 21:05:48 435.675 MHz FM
SO-50 31 Oct 21:24:29 21:28:07 21° 249° (WSW) 21:31:45 436.795 FM
UKube-1 31 Oct 21:24:40 21:28:50 47° 72° (ENE) 21:33:02 145.840 MHz, 145.915 MHz
KITSAT 1 31 Oct 21:25:00 21:32:17 39° 251° (WSW) 21:39:34 435.175 FM
ZACube-1 31 Oct 21:34:56 21:38:36 25° 68° (ENE) 21:42:12 437.345 MHz
Oscar 11 31 Oct 21:59:13 22:03:32 79° 258° (WSW) 22:07:52 145.825 FM, Beacon 2401.500 USB
UOSAT-12 31 Oct 22:05:31 22:10:14 75° 240° (WSW) 22:14:51 437.025 FM, 437.400 FM
FUNcube-1 31 Oct 22:16:44 22:21:13 68° 75° (ENE) 22:25:39 145.950 - 145.970 MHz USB
MaSat-1 31 Oct 22:22:38 22:26:33 82° 295° (WNW) 22:30:04 437.345 MHz
HO-68 31 Oct 22:42:06 22:46:59 19° 269° (W) 22:51:54 435.675 MHz FM
RS-15 31 Oct 23:01:25 23:11:50 47° 316° (NW) 23:22:20 29.354 - 29.394 USB, Beacon 29.352 USB
UKube-1 31 Oct 23:02:40 23:05:16 15° 268° (W) 23:07:53 145.840 MHz, 145.915 MHz
ZACube-1 31 Oct 23:10:49 23:14:51 31° 263° (W) 23:18:50 437.345 MHz
FUNcube-1 31 Oct 23:56:40 23:58:00 11° 270° (W) 23:59:19 145.950 - 145.970 MHz USB
Sapphire 01 Nov 00:56:54 00:57:24 10° 101° (E) 00:57:54 437.095 MHz 1200 baud AX-25 AFSK
PCSat 01 Nov 01:15:05 01:18:42 18° 105° (ESE) 01:22:18 145.825 MHz
JAS-1B 01 Nov 01:16:26 01:22:02 22° 94° (E) 01:28:17 435.800 - 435.900 CW/SSB
RS-15 01 Nov 01:20:09 01:27:57 21° 348° (NNW) 01:35:52 29.354 - 29.394 USB, Beacon 29.352 USB
Oscar 19 01 Nov 01:34:03 01:37:52 21° 93° (E) 01:41:40 437.125 CW, 437.150 USB
AO-27 01 Nov 02:11:52 02:15:35 19° 93° (E) 02:19:16 436.795 MHz FM
Oscar 16 01 Nov 02:20:18 02:25:23 59° 101° (E) 02:30:25 437.025 USB, Beacon 2401.1428
Gurwin Techsat 1B 01 Nov 02:30:55 02:34:03 16° 91° (E) 02:37:10 435.225 FM
Sapphire 01 Nov 02:34:31 02:39:55 83° 118° (ESE) 02:45:22 437.095 MHz 1200 baud AX-25 AFSK
TMSAT-1 01 Nov 02:37:33 02:39:55 13° 89° (E) 02:42:17 436.925 FM
AO-Echo 01 Nov 02:50:39 02:55:57 62° 101° (E) 03:01:09 ?
Uribyol 2 01 Nov 02:54:20 02:59:24 51° 100° (E) 03:04:25 436.500 FM
PCSat 01 Nov 02:56:14 03:01:34 61° 302° (WNW) 03:06:58 145.825 MHz
ITAMSAT 1 01 Nov 03:02:24 03:07:33 57° 101° (E) 03:12:39 435.822 SSB
JAS-1B 01 Nov 03:05:47 03:12:55 74° 287° (WNW) 03:21:29 435.800 - 435.900 CW/SSB
Oscar 19 01 Nov 03:12:32 03:17:25 46° 289° (WNW) 03:22:17 437.125 CW, 437.150 USB
RS-15 01 Nov 03:36:53 03:45:41 26° 24° (NNE) 03:54:41 29.354 - 29.394 USB, Beacon 29.352 USB
AO-27 01 Nov 03:50:19 03:55:23 51° 289° (WNW) 04:00:24 436.795 MHz FM
Oscar 16 01 Nov 04:00:54 04:04:15 18° 298° (WNW) 04:07:35 437.025 USB, Beacon 2401.1428
Gurwin Techsat 1B 01 Nov 04:09:11 04:14:28 64° 287° (WNW) 04:19:42 435.225 FM
TMSAT-1 01 Nov 04:15:05 04:20:24 76° 286° (WNW) 04:25:41 436.925 FM
OPAL 01 Nov 04:20:26 04:24:33 25° 63° (ENE) 04:28:38 ?
Sapphire 01 Nov 04:20:27 04:24:02 18° 317° (NW) 04:27:38 437.095 MHz 1200 baud AX-25 AFSK
AO-Echo 01 Nov 04:30:38 04:34:10 18° 298° (WNW) 04:37:41 ?
Uribyol 2 01 Nov 04:34:43 04:38:29 21° 297° (WNW) 04:42:14 436.500 FM
ITAMSAT 1 01 Nov 04:43:01 04:46:35 19° 298° (WNW) 04:50:07 435.822 SSB
Uosat F 01 Nov 04:43:09 04:47:29 28° 96° (E) 04:51:45 435.120 FM
PCSat 01 Nov 04:44:03 04:46:08 12° 323° (NW) 04:48:13 145.825 MHz
JAS-2 01 Nov 04:48:45 04:53:13 16° 85° (E) 04:57:35 435.800 - 435.900 CW/SSB, 435.910 FM
AO-7 01 Nov 04:51:33 04:59:35 49° 101° (E) 05:07:34 29.400 - 29.500 MHz
JAS-1B 01 Nov 04:59:00 05:02:39 15° 303° (WNW) 05:06:35 435.800 - 435.900 CW/SSB
PANSAT 01 Nov 05:25:18 05:26:59 13° 179° (S) 05:28:41 not established
Hamsat 01 Nov 05:30:18 05:30:24 10° 89° (E) 05:30:29 145.90 MHz
RS-15 01 Nov 05:49:29 06:00:38 68° 53° (NE) 06:12:14 29.354 - 29.394 USB, Beacon 29.352 USB
Saudisat 1A 01 Nov 05:55:52 06:00:14 83° 121° (ESE) 06:04:40 436.775 MHz
OPAL 01 Nov 05:58:25 06:03:12 40° 259° (W) 06:07:58 ?
TMSAT-1 01 Nov 05:58:37 05:59:23 10° 303° (WNW) 06:00:10 436.925 FM
STRAND 1 01 Nov 06:17:12 06:21:53 37° 69° (ENE) 06:26:36 ?
Uosat F 01 Nov 06:21:44 06:26:16 34° 292° (WNW) 06:30:45 435.120 FM
JAS-2 01 Nov 06:31:20 06:39:16 83° 104° (ESE) 06:46:52 435.800 - 435.900 CW/SSB, 435.910 FM
AO-7 01 Nov 06:44:39 06:52:09 39° 300° (WNW) 06:59:40 29.400 - 29.500 MHz
Hamsat 01 Nov 07:02:33 07:06:45 67° 285° (WNW) 07:10:58 145.90 MHz
SO-67 01 Nov 07:21:01 07:23:42 21° 95° (E) 07:26:22 435.3500 MHz FM
Saudisat 1A 01 Nov 07:37:55 07:40:23 15° 321° (NW) 07:42:52 436.775 MHz
STRAND 1 01 Nov 07:56:51 08:01:08 26° 265° (W) 08:05:27 ?
RS-15 01 Nov 08:02:36 08:12:18 36° 254° (WSW) 08:22:24 29.354 - 29.394 USB, Beacon 29.352 USB
MaSat-1 01 Nov 08:07:25 08:09:37 29° 249° (WSW) 08:11:42 437.345 MHz
JAS-2 01 Nov 08:17:36 08:23:20 23° 302° (WNW) 08:28:59 435.800 - 435.900 CW/SSB, 435.910 FM
HO-68 01 Nov 08:22:14 08:25:19 13° 88° (E) 08:28:23 435.675 MHz FM
ISS 01 Nov 08:51:14 08:52:43 13° 129° (SE) 08:54:12 145.800 FM
SO-67 01 Nov 08:53:56 08:56:33 21° 290° (WNW) 08:59:10 435.3500 MHz FM
Sapphire 01 Nov 09:41:16 09:43:34 13° 38° (NE) 09:45:51 437.095 MHz 1200 baud AX-25 AFSK
Oscar 11 01 Nov 09:47:50 09:50:53 19° 93° (E) 09:53:56 145.825 FM, Beacon 2401.500 USB
KITSAT 1 01 Nov 09:58:07 10:05:04 33° 107° (ESE) 10:12:02 435.175 FM
SO-50 01 Nov 10:00:04 10:02:35 15° 108° (ESE) 10:05:08 436.795 FM
PCSat 01 Nov 10:01:55 10:05:37 18° 43° (NE) 10:09:18 145.825 MHz
HO-68 01 Nov 10:06:48 10:14:03 80° 105° (ESE) 10:21:13 435.675 MHz FM
FUNcube-1 01 Nov 10:08:04 10:09:43 12° 90° (E) 10:11:21 145.950 - 145.970 MHz USB
ISS 01 Nov 10:25:41 10:28:59 74° 325° (NW) 10:32:19 145.800 FM
UKube-1 01 Nov 10:48:44 10:53:08 90° 113° (ESE) 10:57:29 145.840 MHz, 145.915 MHz
ZACube-1 01 Nov 10:59:43 11:03:47 48° 99° (E) 11:07:47 437.345 MHz
Sapphire 01 Nov 11:22:40 11:28:05 64° 58° (ENE) 11:33:28 437.095 MHz 1200 baud AX-25 AFSK
Oscar 11 01 Nov 11:23:13 11:27:11 37° 289° (WNW) 11:31:09 145.825 FM, Beacon 2401.500 USB
SO-50 01 Nov 11:38:08 11:42:35 60° 306° (NW) 11:47:11 436.795 FM
FUNcube-1 01 Nov 11:42:21 11:46:27 53° 286° (WNW) 11:50:28 145.950 - 145.970 MHz USB
PCSat 01 Nov 11:44:14 11:49:41 80° 243° (WSW) 11:55:05 145.825 MHz
KITSAT 1 01 Nov 11:52:08 12:00:03 58° 306° (NW) 12:08:01 435.175 FM
HO-68 01 Nov 11:55:52 12:00:56 21° 304° (NW) 12:05:59 435.675 MHz FM
Oscar 16 01 Nov 12:02:18 12:03:44 11° 58° (ENE) 12:05:09 437.025 USB, Beacon 2401.1428
ISS 01 Nov 12:03:44 12:06:08 18° 344° (NNW) 12:08:32 145.800 FM
JAS-1B 01 Nov 12:06:01 12:08:33 13° 56° (NE) 12:11:06 435.800 - 435.900 CW/SSB
UOSAT-12 01 Nov 12:16:40 12:20:50 34° 114° (ESE) 12:25:04 437.025 FM, 437.400 FM
ZACube-1 01 Nov 12:37:28 12:39:45 15° 296° (WNW) 12:42:02 437.345 MHz
Uribyol 2 01 Nov 12:37:53 12:38:37 10° 57° (ENE) 12:39:21 436.500 FM
ITAMSAT 1 01 Nov 12:45:04 12:46:47 12° 58° (ENE) 12:48:30 435.822 SSB
Saudisat 1A 01 Nov 12:45:34 12:46:34 11° 35° (NE) 12:47:34 436.775 MHz
Oscar 19 01 Nov 12:50:43 12:55:09 31° 67° (ENE) 12:59:36 437.125 CW, 437.150 USB
Sapphire 01 Nov 13:07:28 13:10:56 18° 255° (WSW) 13:14:25 437.095 MHz 1200 baud AX-25 AFSK
SO-50 01 Nov 13:22:52 13:24:09 11° 326° (NNW) 13:25:26 436.795 FM
AO-27 01 Nov 13:29:41 13:34:11 30° 67° (ENE) 13:38:41 436.795 MHz FM
Oscar 16 01 Nov 13:37:06 13:42:15 84° 75° (ENE) 13:47:25 437.025 USB, Beacon 2401.1428
ISS 01 Nov 13:42:02 13:43:49 14° 4° (N) 13:45:37 145.800 FM
Gurwin Techsat 1B 01 Nov 13:51:33 13:55:51 26° 65° (ENE) 14:00:09 435.225 FM
KITSAT 1 01 Nov 13:52:16 13:57:25 18° 331° (NNW) 14:02:35 435.175 FM
JAS-1B 01 Nov 13:52:39 13:58:24 83° 256° (WSW) 14:04:11 435.800 - 435.900 CW/SSB
UOSAT-12 01 Nov 13:56:51 14:00:59 30° 312° (NW) 14:05:10 437.025 FM, 437.400 FM
TMSAT-1 01 Nov 13:57:36 14:01:33 22° 64° (ENE) 14:05:32 436.925 FM
AO-7 01 Nov 14:02:53 14:07:06 15° 46° (NE) 14:11:19 29.400 - 29.500 MHz
AO-Echo 01 Nov 14:03:16 14:08:15 76° 75° (ENE) 14:13:26 ?
Uribyol 2 01 Nov 14:11:58 14:17:11 77° 74° (ENE) 14:22:25 436.500 FM
ITAMSAT 1 01 Nov 14:20:13 14:25:26 85° 75° (ENE) 14:30:42 435.822 SSB
Saudisat 1A 01 Nov 14:22:37 14:27:01 63° 55° (NE) 14:31:24 436.775 MHz
Oscar 19 01 Nov 14:29:51 14:34:25 32° 264° (W) 14:39:00 437.125 CW, 437.150 USB
